Temp
9 9 9 9 9 8 8 8 9 9 9 9 8 8 8 8 8 8 8 8 8 8 8 8 8 8 8 8 8 8 9 9 8 9 9 9 9 8 8 7 7 7 7
8 9 9 9 8 8 8 8 8 9 8 8 8 8 8 8 8 7 8 8 8 8 8 8 8 8 8 8 8 8 9 9 8 8 8 8 8 8 8 8 8 7 7
8 8 9 8 8 8 7 8 8 9 8 8 8 8 8 8 8 8 8 8 8 8 8 8 8 8 8 8 9 9 9 9 8 8 8 8 8 8 8 8 8 8 8
8 8 8 8 8 7 7 8 8 8 7 7 8 8 8 8 8 8 8 8 8 8 8 8 8 8 8 8 9 9 9 9 9 8 8 8 8 8 8 8 8 8 8
8 7 8 8 7 7 7 7 8 7 7 7 8 8 8 8 8 8 8 8 8 8 8 8 8 8 8 8 8 8 9 9 9 9 8 8 8 8 8 8 7 7 7
7 7 8 7 7 7 7 7 7 7 7 7 8 8 8 8 7 7 8 8 8 8 8 8 8 8 8 8 8 8 8 8 8 8 8 8 8 8 8 8 8 7 7
7 7 7 7 7 7 7 7 7 6 6 7 8 8 8 8 7 7 8 8 8 8 8 8 8 8 8 8 8 8 8 8 8 8 8 8 8 8 8 7 7 7 7
6 7 7 7 6 6 7 6 6 7 6 7 8 8 8 8 7 7 7 8 8 8 7 8 7 7 8 7 8 8 7 8 8 8 8 8 8 8 8 8 7 7 7
6 6 6 6 6 6 6 6 6 6 6 6 8 8 7 7 7 7 7 8 8 7 7 7 7 7 7 7 7 7 7 7 8 8 8 8 8 8 7 7 7 7 7
4 6 6 6 6 6 5 6 6 6 6 7 7 8 7 7 7 7 7 7 7 7 7 7 7 7 7 7 7 7 7 7 7 8 8 8 8 7 7 7 7 7 6
4 4 6 6 6 5 6 6 6 6 7 7 7 7 7 7 7 7 7 7 7 7 7 7 7 7 7 7 7 7 7 7 7 7 8 8 8 7 7 7 7 7 6
5 4 5 6 6 5 6 6 6 6 6 6 7 7 7 7 7 7 7 7 7 7 6 7 7 7 7 7 7 6 6 7 7 7 7 7 7 7 7 7 7 7 7
3 3 5 5 5 5 6 6 6 6 6 6 7 7 7 6 6 6 7 7 6 6 6 6 6 6 6 6 6 6 6 6 6 7 7 7 7 7 7 7 6 6 6
4 3 4 5 5 5 5 5 5 5 5 6 7 7 6 6 6 6 7 7 6 6 6 6 6 6 6 6 6 6 6 6 6 6 7 7 7 7 7 6 6 6 6
4 4 3 4 5 5 5 4 4 5 5 6 6 6 6 6 6 6 7 6 6 6 6 6 6 6 6 6 6 6 5 5 6 6 6 6 6 6 6 6 6 6 6
3 3 3 3 4 5 5 5 4 5 5 6 6 6 6 6 6 6 6 6 5 6 5 6 6 6 6 6 6 5 5 5 5 5 6 6 6 6 6 6 6 6 6
2 2 3 4 4 4 4 5 4 4 4 5 6 5 5 6 6 5 6 5 6 5 5 5 6 6 6 6 5 5 5 5 5 5 5 5 5 5 5 6 5 5 5
2 2 3 4 4 3 4 4 4 4 4 5 5 5 5 6 5 5 5 5 6 5 5 5 5 6 5 6 5 5 5 5 5 5 5 5 5 5 5 5 5 5 5
2 2 2 3 4 4 4 4 4 4 3 4 5 5 5 5 5 5 5 5 6 5 5 5 5 5 5 5 5 5 5 5 4 4 4 4 4 4 5 4 4 5 4
1 2 2 3 2 3 3 3 4 3 3 4 4 5 5 5 5 5 5 5 5 5 6 5 5 5 5 5 5 5 4 4 4 4 4 4 4 4 4 4 4 4 4
1 2 2 3 3 3 3 4 4 5 4 5 5 5 5 5 4 5 5 5 5 5 5 5 5 5 5 5 5 4 4 4 4 4 4 3 3 3 3 3 3 3 3
1 1 2 3 3 3 3 3 4 4 4 4 4 4 5 5 5 5 5 5 5 5 5 4 4 4 5 5 4 4 4 4 4 4 4 3 3 3 3 3 3 3 3
1 2 2 2 3 3 3 3 4 4 3 3 4 5 6 5 5 5 4 5 5 4 4 4 4 4 4 4 4 4 3 3 3 4 3 3 3 3 2 2 2 2 2
1 2 1 1 2 2 3 3 4 4 5 5 5 6 5 5 4 5 5 4 4 4 4 4 4 4 4 4 4 3 3 3 3 4 3 3 3 2 2 1 1 1 1
0 0 -1 0 2 3 4 3 4 3 4 4 4 5 5 5 5 5 5 4 4 4 4 4 4 4 3 3 3 3 3 3 3 3 3 3 3 2 2 1 1 1 1
0 0 0 0 2 3 4 5 4 3 4 4 5 5 5 4 5 4 4 4 4 4 4 3 3 3 3 3 3 3 2 2 2 3 3 3 3 2 2 1 1 1 1
Height
3128 3131 3136 3139 3141 3145 3148 3149 3152 3154 3157 3160 3161 3164 3165 3166 3168 3169 3170 3171 3173 3174 3175 3176 3176 3176 3177 3175 3177 3176 3177 3178 3179 3179 3180 3180 3179 3179 3179 3178 3179 3180 3180
3126 3129 3132 3135 3138 3142 3146 3147 3150 3153 3155 3157 3159 3161 3163 3165 3167 3168 3169 3170 3172 3174 3175 3176 3176 3176 3176 3175 3177 3176 3177 3179 3178 3180 3181 3181 3181 3180 3179 3179 3179 3180 3180
3125 3125 3128 3132 3136 3139 3143 3145 3148 3151 3153 3155 3157 3159 3161 3164 3165 3167 3168 3170 3171 3173 3174 3175 3175 3176 3176 3175 3177 3176 3178 3179 3178 3178 3180 3181 3181 3181 3180 3179 3179 3179 3179
3123 3124 3126 3130 3133 3137 3140 3143 3146 3149 3151 3154 3156 3158 3160 3163 3164 3166 3167 3169 3171 3172 3173 3174 3175 3176 3175 3175 3177 3176 3178 3179 3180 3180 3180 3181 3181 3182 3181 3181 3180 3180 3179
3119 3121 3124 3127 3131 3134 3137 3140 3144 3146 3150 3152 3155 3157 3159 3161 3163 3164 3166 3168 3170 3172 3173 3174 3175 3175 3174 3176 3177 3177 3178 3178 3179 3181 3181 3181 3181 3182 3182 3181 3181 3181 3180
3116 3119 3121 3123 3127 3131 3134 3138 3141 3144 3148 3151 3154 3156 3158 3161 3162 3164 3166 3168 3170 3171 3171 3173 3176 3175 3175 3177 3177 3177 3178 3178 3177 3180 3181 3181 3181 3181 3181 3181 3181 3181 3180
3113 3115 3118 3120 3124 3127 3131 3134 3138 3142 3145 3149 3152 3155 3157 3159 3161 3163 3164 3166 3168 3170 3171 3173 3175 3174 3177 3177 3177 3177 3178 3177 3178 3179 3181 3181 3181 3181 3181 3180 3180 3179 3179
3108 3111 3114 3116 3120 3124 3128 3131 3135 3139 3143 3147 3150 3153 3155 3157 3159 3162 3163 3165 3167 3169 3170 3173 3174 3174 3177 3177 3176 3176 3177 3177 3178 3179 3180 3180 3181 3180 3181 3180 3179 3178 3178
3102 3107 3110 3112 3116 3121 3125 3129 3132 3136 3141 3144 3147 3151 3153 3155 3157 3160 3163 3165 3167 3169 3170 3171 3173 3174 3177 3177 3176 3176 3176 3177 3177 3179 3180 3180 3180 3180 3180 3179 3178 3177 3176
3095 3101 3105 3109 3112 3116 3121 3125 3130 3133 3138 3141 3144 3149 3151 3154 3156 3159 3162 3163 3166 3168 3169 3171 3172 3175 3176 3176 3176 3176 3175 3176 3177 3178 3179 3179 3179 3179 3178 3178 3177 3176 3175
3088 3093 3099 3105 3108 3113 3117 3121 3126 3131 3135 3138 3142 3146 3149 3152 3155 3158 3161 3163 3164 3166 3169 3169 3171 3174 3174 3175 3175 3176 3175 3175 3176 3177 3178 3178 3178 3177 3176 3176 3175 3174 3174
3082 3086 3094 3099 3103 3108 3113 3118 3123 3127 3132 3136 3140 3144 3147 3150 3153 3157 3159 3161 3163 3165 3167 3168 3171 3173 3173 3174 3174 3175 3174 3174 3174 3176 3176 3176 3176 3175 3174 3174 3173 3173 3172
3077 3082 3087 3093 3098 3103 3108 3114 3120 3124 3129 3132 3137 3141 3145 3148 3151 3154 3156 3160 3162 3164 3165 3168 3170 3171 3172 3173 3173 3174 3173 3172 3173 3173 3174 3174 3174 3173 3173 3172 3171 3170 3170
3073 3076 3082 3088 3092 3099 3105 3110 3116 3121 3125 3129 3134 3139 3142 3144 3148 3151 3156 3157 3160 3161 3165 3167 3168 3170 3171 3172 3172 3172 3171 3170 3170 3171 3172 3172 3172 3171 3171 3170 3169 3168 3167
3066 3069 3074 3081 3088 3094 3100 3105 3111 3116 3121 3125 3131 3136 3140 3141 3146 3149 3153 3155 3157 3160 3163 3165 3167 3168 3169 3170 3170 3171 3171 3169 3169 3169 3170 3170 3170 3169 3169 3168 3167 3165 3165
3063 3067 3068 3075 3083 3089 3096 3102 3107 3111 3117 3121 3128 3132 3135 3138 3143 3146 3150 3152 3154 3159 3160 3163 3165 3167 3168 3168 3168 3168 3168 3168 3168 3168 3169 3168 3168 3167 3167 3166 3165 3164 3163
3058 3061 3066 3067 3077 3084 3090 3096 3102 3107 3112 3117 3123 3127 3131 3134 3140 3143 3147 3148 3153 3155 3158 3160 3162 3163 3165 3166 3166 3166 3165 3166 3167 3166 3166 3166 3165 3165 3164 3163 3162 3161 3160
3050 3055 3060 3067 3073 3079 3084 3089 3096 3102 3107 3112 3118 3122 3126 3132 3135 3140 3144 3145 3149 3152 3155 3158 3159 3160 3162 3163 3163 3163 3162 3163 3165 3165 3164 3163 3162 3161 3160 3160 3159 3158 3156
3044 3050 3055 3062 3067 3073 3078 3085 3091 3097 3103 3107 3112 3117 3122 3128 3132 3137 3139 3141 3145 3148 3151 3154 3156 3158 3159 3160 3161 3161 3160 3161 3162 3161 3161 3160 3159 3158 3157 3156 3154 3153 3152
3038 3045 3050 3057 3062 3067 3072 3079 3085 3091 3096 3101 3106 3111 3117 3122 3127 3132 3133 3138 3141 3144 3148 3150 3152 3154 3155 3157 3157 3158 3157 3158 3159 3158 3158 3157 3155 3154 3153 3151 3149 3148 3146
3031 3039 3044 3050 3055 3059 3067 3071 3078 3085 3092 3096 3101 3106 3111 3117 3123 3126 3129 3133 3136 3140 3142 3144 3148 3150 3151 3152 3153 3154 3154 3155 3155 3155 3154 3153 3152 3150 3149 3147 3145 3143 3141
3027 3034 3040 3045 3051 3058 3061 3069 3076 3081 3086 3091 3095 3101 3107 3113 3117 3120 3124 3128 3132 3135 3138 3140 3143 3145 3146 3148 3149 3150 3151 3152 3151 3150 3150 3149 3148 3146 3143 3142 3140 3138 3135
3019 3026 3033 3040 3046 3051 3056 3062 3067 3072 3078 3082 3089 3096 3101 3105 3109 3114 3119 3123 3127 3130 3133 3135 3137 3140 3141 3143 3144 3146 3146 3147 3147 3146 3145 3145 3143 3141 3138 3136 3134 3132 3130
3014 3021 3026 3035 3041 3045 3049 3054 3061 3068 3073 3080 3085 3091 3094 3100 3105 3109 3113 3116 3120 3124 3128 3130 3132 3134 3137 3138 3139 3140 3142 3142 3142 3142 3140 3139 3138 3136 3134 3132 3129 3126 3124
3013 3018 3022 3027 3032 3039 3045 3050 3055 3059 3068 3074 3079 3085 3088 3093 3099 3103 3106 3110 3114 3118 3121 3124 3127 3129 3130 3132 3134 3136 3136 3136 3136 3136 3135 3134 3133 3131 3129 3126 3123 3120 3117
3011 3012 3017 3022 3030 3035 3041 3044 3049 3056 3062 3068 3072 3077 3082 3087 3091 3095 3098 3103 3107 3111 3115 3118 3120 3123 3124 3127 3128 3130 3129 3130 3129 3129 3129 3128 3128 3126 3123 3120 3117 3114 3110
Wind_Speed
22 24 23 17 20 23 23 22 20 19 19 17 17 17 15 13 12 12 10 9 8 7 6 5 4 3 3 4 3 4 3 5 6 7 6 6 6 7 6 6 5 5 5
14 28 24 20 22 23 22 22 21 21 18 19 18 17 15 14 14 12 11 9 7 6 5 4 4 4 4 5 4 4 4 6 9 7 6 5 5 6 6 6 5 3 3
18 19 24 23 25 24 23 22 21 19 18 17 18 18 16 15 13 11 9 8 7 6 5 5 4 5 6 6 4 4 4 6 10 5 4 4 4 4 5 6 5 4 3
25 17 23 25 27 26 24 23 21 21 20 19 17 15 15 13 12 11 9 8 7 6 6 6 5 6 7 6 5 5 5 9 11 6 4 5 5 4 4 3 3 3 2
16 24 21 27 27 25 24 23 22 22 22 18 16 15 14 13 12 11 10 9 8 8 8 8 7 7 8 7 7 7 7 10 10 7 5 5 6 5 4 3 2 1 1
16 16 26 29 28 27 26 24 24 24 23 17 14 14 13 13 12 10 10 9 10 10 9 8 8 9 9 8 8 8 9 8 8 7 6 5 6 5 5 5 4 4 4
24 16 26 31 30 28 27 25 25 24 24 18 15 14 14 13 12 11 11 12 11 11 10 9 9 10 8 8 7 7 8 6 6 5 5 5 6 7 7 7 7 7 7
28 21 26 34 33 30 28 27 27 25 24 17 15 15 15 14 13 12 13 13 12 11 10 10 10 9 8 7 5 5 6 4 4 3 3 4 5 7 9 9 9 9 9
31 27 27 36 35 32 29 29 27 27 24 19 17 17 16 15 14 14 14 14 12 11 11 11 10 9 8 5 4 3 4 2 2 3 3 3 5 7 8 10 11 12 13
31 29 23 37 36 33 32 31 28 26 24 20 19 18 17 15 15 15 16 14 13 12 12 11 9 8 7 5 3 2 2 2 2 2 3 4 5 7 9 10 11 11 12
31 33 32 36 37 34 33 31 28 25 23 21 20 20 18 16 16 17 16 14 13 12 12 9 8 8 6 4 3 2 2 1 1 2 3 4 6 7 8 9 10 11 12
34 34 38 38 38 36 34 31 27 25 23 19 20 21 19 16 18 19 17 15 14 13 11 9 8 8 5 4 4 3 2 1 1 3 3 4 6 7 7 8 9 11 14
32 35 41 38 38 38 33 30 27 25 23 21 22 21 18 17 19 20 18 17 15 13 11 10 9 7 6 5 4 2 2 0 1 3 4 5 6 7 8 9 10 13 15
37 39 39 40 36 36 33 31 27 25 25 23 22 21 19 21 21 21 20 18 17 13 12 11 9 8 6 6 4 2 2 1 2 3 5 5 6 7 8 10 11 13 15
37 33 40 37 37 35 34 30 29 27 25 25 22 20 21 21 21 22 21 21 16 14 14 11 9 8 7 6 5 4 3 3 3 4 5 5 7 7 8 9 11 13 15
44 45 45 39 36 34 33 32 29 27 25 26 23 22 23 22 23 23 24 20 17 17 14 12 10 9 8 8 7 7 5 4 5 5 6 6 7 7 9 11 12 13 15
52 44 49 37 39 36 32 30 29 26 25 25 25 25 25 23 23 23 25 20 20 18 16 14 12 10 10 10 9 8 7 6 7 7 7 7 8 9 10 11 14 16 17
53 41 37 42 39 40 37 31 30 28 24 25 26 26 26 24 23 26 24 21 22 19 18 17 14 12 12 11 10 9 8 8 9 8 8 8 9 10 12 13 15 17 20
57 31 30 37 39 35 41 39 31 28 25 27 28 27 26 25 25 26 25 23 24 20 20 19 15 14 13 13 12 11 9 10 10 10 9 9 10 11 12 14 15 17 20
46 30 25 28 36 36 28 32 32 30 29 29 30 28 28 27 27 26 24 25 24 21 22 20 18 16 15 15 13 13 11 11 12 12 11 11 11 12 13 14 15 18 20
48 31 27 27 29 33 41 31 28 29 31 31 30 30 29 29 29 26 25 26 24 24 24 22 21 17 17 17 16 14 14 13 13 14 13 12 13 14 15 15 17 18 20
49 34 27 28 22 28 30 27 25 25 26 28 29 29 30 30 29 28 29 26 25 26 24 23 22 20 18 19 18 16 16 16 15 15 15 15 16 15 15 17 19 20 22
61 42 30 28 22 17 15 28 31 29 30 31 30 31 31 32 33 31 28 27 27 27 24 24 23 22 21 21 20 19 18 18 17 16 18 18 18 17 16 19 21 22 24
51 33 32 25 21 16 21 32 34 30 26 25 28 31 32 32 32 30 30 30 30 27 27 25 25 24 23 22 22 22 21 20 20 18 19 19 19 19 19 20 22 23 25
50 35 32 25 26 25 25 39 35 29 31 31 30 31 30 31 33 33 32 32 30 29 29 26 26 26 25 24 24 24 22 22 22 22 21 21 20 21 22 23 24 26 28
33 44 42 35 35 31 31 29 28 31 32 36 35 32 32 33 34 33 33 33 32 32 30 28 29 28 26 26 25 25 24 24 24 24 23 23 21 22 24 26 26 28 30
Wind_Direction
218 201 212 213 198 194 195 192 194 194 191 192 188 186 193 190 184 185 183 187 186 177 174 180 182 162 159 114 110 102 80 76 66 51 47 52 63 77 91 109 118 118 126
205 198 206 207 194 193 199 196 195 194 192 191 191 194 190 186 186 181 180 180 172 177 183 184 181 175 154 120 116 100 95 79 71 52 40 40 53 75 88 95 100 103 124
209 195 201 203 194 195 197 196 194 197 189 188 188 186 184 183 181 179 177 180 183 181 179 183 177 177 147 119 130 111 94 89 78 61 50 38 35 53 85 95 103 106 103
215 207 200 198 196 196 196 195 194 192 189 185 185 183 183 183 180 183 180 184 182 181 183 168 168 175 138 134 142 133 115 91 89 84 41 32 32 25 42 67 86 98 112
219 213 208 197 198 197 195 195 197 193 191 189 192 189 189 187 185 185 184 180 181 178 173 159 169 164 130 147 146 137 105 88 86 78 55 37 28 19 17 12 24 350 336
235 220 210 198 197 197 198 198 198 194 196 197 202 198 197 192 190 188 185 178 179 174 164 164 171 149 139 155 148 131 102 86 76 60 35 19 4 353 346 341 329 308 292
232 239 216 198 196 199 202 197 198 197 196 204 207 206 202 196 191 193 182 179 176 175 167 167 170 142 158 161 149 120 102 92 74 44 20 358 350 340 335 327 315 307 298
225 235 218 200 196 199 201 199 199 200 196 207 209 207 204 199 194 193 182 179 180 175 168 173 166 146 176 170 155 124 102 84 71 47 13 355 345 340 331 328 324 315 305
214 220 212 199 197 199 198 201 200 199 206 213 210 208 205 201 196 192 186 183 183 179 175 174 164 168 193 180 174 125 106 100 73 39 5 354 346 340 333 327 323 317 314
198 204 210 208 198 198 197 201 201 203 212 212 209 209 205 203 199 192 189 186 186 181 180 177 167 187 205 202 190 129 153 121 63 27 343 344 342 339 334 329 330 325 322
203 202 210 212 200 199 199 200 201 207 210 209 208 207 205 202 199 195 193 191 187 185 182 173 181 205 206 212 196 167 207 110 57 355 328 334 332 337 336 332 335 334 331
203 203 210 203 202 200 203 203 206 210 213 210 211 210 205 200 200 198 194 195 187 189 179 183 199 207 203 209 208 195 212 120 12 324 320 321 328 336 337 334 338 338 331
204 202 195 198 202 204 206 208 210 214 216 212 215 212 202 204 203 200 199 198 191 190 186 195 206 203 201 212 215 206 238 259 313 310 309 316 326 332 338 334 341 342 336
208 196 195 202 201 204 206 208 211 217 218 216 215 214 205 205 205 204 205 200 198 194 201 206 208 209 210 223 230 231 257 274 307 301 301 308 316 326 333 334 340 341 336
200 199 203 200 203 205 206 206 209 214 218 219 214 213 212 208 207 206 210 207 199 205 213 218 222 226 231 245 256 260 268 292 294 297 296 303 308 317 321 324 332 334 329
211 208 199 203 207 207 210 209 209 211 215 218 215 211 213 212 211 210 214 210 207 216 218 228 234 245 256 266 272 274 277 287 288 292 294 298 302 310 316 319 321 322 320
218 205 206 214 205 209 213 214 215 213 213 218 215 213 215 215 215 215 218 211 217 220 227 235 241 251 263 272 279 283 284 282 283 288 289 297 303 307 309 311 316 316 315
204 199 192 197 214 210 210 214 211 212 210 214 217 215 217 219 216 220 220 218 225 225 232 239 245 254 266 271 275 277 280 282 282 283 290 298 302 306 311 312 314 315 316
213 189 195 205 204 217 223 218 207 206 208 212 215 215 218 220 221 223 222 224 229 228 237 242 247 256 265 274 281 283 286 285 284 285 288 292 296 302 305 310 312 315 317
189 184 185 195 205 204 211 220 212 207 209 211 215 214 218 220 223 224 225 230 232 234 241 247 250 255 264 269 273 277 280 283 282 282 284 289 295 299 303 306 310 315 317
184 190 186 196 202 214 215 208 209 207 211 212 216 216 217 221 225 225 228 233 235 238 241 245 253 254 262 267 270 276 280 281 283 284 285 289 296 301 305 306 310 313 313
192 191 197 192 197 214 206 216 211 209 214 216 220 223 223 223 224 227 229 233 236 240 243 248 253 254 260 267 271 275 280 281 284 289 289 289 290 297 301 306 309 311 311
189 196 191 192 194 202 208 219 215 208 214 218 218 222 223 225 224 227 232 234 238 241 245 248 252 256 259 264 271 274 278 280 281 287 289 288 290 295 303 307 307 310 309
190 196 193 205 212 216 219 220 219 217 219 223 222 226 227 228 230 229 232 234 239 242 246 249 252 257 259 264 270 273 278 282 284 285 288 289 292 296 300 305 304 304 305
204 203 202 211 209 221 224 217 215 220 225 226 228 231 231 231 232 231 233 237 240 243 246 248 252 256 259 264 268 274 278 282 285 289 290 291 291 293 298 304 305 307 308
222 219 212 211 201 209 218 226 233 228 228 231 231 231 230 233 236 234 235 236 239 243 246 248 250 254 259 264 268 271 276 281 285 289 290 289 286 287 295 302 305 307 309